Temperature
13 13 12 12 12 13 12 12 12 12 12 12 12 12 12 12 12 11 11 11 11 10 10 10 10 9 9 9 9 9 9 9 8 8 8 8 7 7 7 7 7 7 7
12 12 12 12 12 12 12 12 12 12 12 12 12 12 12 11 11 11 11 11 11 10 10 10 10 9 9 9 9 8 8 8 8 8 8 7 7 7 7 7 7 7 6
12 12 12 12 12 12 12 12 12 12 12 11 11 11 11 11 11 11 11 10 10 10 10 10 10 9 9 9 8 8 8 8 8 7 7 7 7 7 7 7 6 6 6
12 11 12 11 12 11 11 11 12 11 11 11 11 11 11 11 11 11 10 10 10 10 10 10 9 9 9 9 9 8 8 7 7 7 7 7 7 7 6 6 6 6 6
11 11 11 11 11 11 11 11 11 11 11 11 11 11 11 11 10 10 10 10 10 10 10 9 9 9 9 9 9 8 8 7 7 7 7 6 6 6 6 6 6 5 5
10 11 11 11 11 11 11 11 11 11 11 11 11 10 10 10 10 10 10 10 10 10 9 9 9 9 9 9 9 8 8 7 7 6 6 6 6 6 6 6 5 5 5
10 10 10 10 11 11 11 10 10 10 10 10 10 10 10 10 10 10 10 10 10 10 9 9 9 9 9 9 8 8 8 7 7 6 6 6 6 6 5 5 5 5 5
10 10 10 10 10 10 10 10 10 10 10 10 10 9 9 9 9 10 10 10 10 9 9 9 9 9 9 9 8 8 8 7 7 6 6 6 6 5 5 5 5 4 4
9 9 10 10 10 10 10 10 10 10 10 10 10 10 9 9 9 9 9 9 9 9 9 9 9 9 9 8 8 8 8 7 7 6 6 6 5 5 5 4 4 4 4
9 9 9 9 10 10 10 10 10 10 10 10 9 10 10 10 9 9 9 9 9 9 9 9 9 9 8 8 8 8 7 7 7 6 6 6 5 5 5 4 4 4 4
9 9 9 9 9 10 10 10 10 10 10 10 9 9 10 10 10 10 9 9 9 9 9 9 9 9 8 8 8 8 7 7 7 6 6 5 5 5 4 4 4 3 3
8 8 9 9 9 9 9 10 10 10 10 10 9 9 10 10 10 10 10 9 9 9 9 9 9 9 8 8 8 8 7 7 7 6 6 5 5 5 4 4 3 3 3
8 8 8 9 9 9 9 9 9 9 9 9 9 9 9 10 10 10 10 9 9 9 9 9 9 9 8 8 8 7 7 7 7 6 6 5 5 4 4 4 3 3 3
8 8 8 8 9 9 9 9 9 9 9 9 9 9 9 10 10 10 10 9 8 8 9 9 9 9 8 8 8 7 7 7 6 6 6 5 5 4 4 3 3 3 2
8 8 8 8 9 9 9 9 9 9 9 9 9 9 9 9 9 9 10 10 9 8 8 8 8 9 8 8 8 7 7 7 6 6 5 5 5 4 4 3 3 2 2
8 8 8 8 8 8 8 9 9 9 9 9 9 9 9 9 9 9 9 9 9 9 8 8 8 8 8 8 7 7 7 6 6 6 5 5 4 4 4 3 2 2 2
7 8 8 8 8 8 8 8 8 9 9 9 9 9 9 9 9 9 9 9 9 9 9 8 8 8 8 7 7 7 7 6 6 6 5 5 4 4 3 3 2 2 1
7 7 7 8 8 8 8 8 8 8 9 9 9 8 8 9 8 8 8 9 9 9 8 8 8 8 7 7 7 7 6 6 6 5 5 4 4 4 3 3 2 1 1
7 7 7 7 7 8 8 8 8 8 9 9 9 9 8 8 8 8 8 8 8 8 8 8 8 7 7 7 7 6 6 6 5 5 4 4 4 3 3 2 2 1 1
6 7 7 7 7 7 8 8 8 8 8 8 8 9 9 9 8 8 8 8 8 8 8 7 7 7 7 7 6 6 6 6 5 5 4 4 3 3 2 2 1 1 0
6 6 6 7 7 7 7 7 8 8 8 8 8 8 8 9 8 8 8 8 8 8 7 7 7 7 6 6 6 6 6 5 5 4 4 3 3 2 2 1 1 0 -0
6 6 6 6 6 7 7 7 8 8 8 8 8 8 8 8 8 8 8 8 8 7 7 7 7 6 6 6 6 6 5 5 4 4 4 3 3 2 2 1 0 -0 -1
5 5 6 6 6 6 7 7 8 8 8 8 8 8 8 8 8 8 8 8 7 7 7 7 7 7 7 6 6 6 5 5 4 4 3 3 3 2 1 1 0 -0 -1
5 5 5 5 6 6 7 7 7 7 7 7 7 8 8 8 8 8 7 7 7 7 7 7 7 7 7 6 6 6 5 5 4 3 3 2 2 2 1 0 -0 -1 -1
4 4 4 5 5 6 6 6 7 7 7 7 7 7 7 7 7 7 7 7 7 7 6 6 6 6 6 6 5 5 5 4 4 3 2 2 2 1 1 0 -1 -1 -2
4 4 4 5 5 5 6 6 6 6 6 7 7 7 7 7 7 7 7 7 7 6 6 6 6 6 5 5 5 5 4 4 3 3 2 2 1 1 -0 -0 -1 -1 -2
Wind_Speed
4 4 4 5 6 7 7 7 7 8 8 8 9 9 8 8 7 7 6 7 7 8 8 9 8 7 6 5 4 3 2 1 2 3 4 5 6 7 8 10 11 11 13
6 5 5 5 5 7 8 8 8 8 7 7 8 8 8 8 7 7 6 6 7 7 8 9 8 7 6 5 4 3 1 0 2 3 4 5 6 8 9 10 11 12 13
8 6 5 5 6 7 8 7 7 6 7 7 7 7 7 7 7 6 6 6 6 7 8 9 8 7 6 5 4 3 2 1 2 3 4 5 6 8 9 10 11 12 13
10 8 6 6 7 7 6 6 7 6 6 7 6 6 6 6 6 7 6 6 6 6 7 8 8 7 7 6 4 4 3 3 3 4 5 6 7 8 9 10 11 12 14
11 9 7 6 8 6 6 7 5 6 7 7 7 6 5 5 5 6 6 6 7 6 6 7 7 7 6 6 5 4 4 4 4 5 6 6 7 8 9 10 12 12 13
11 9 7 7 8 7 6 7 7 5 6 7 6 5 4 4 4 5 6 5 6 7 7 6 5 6 6 6 5 5 5 5 5 6 6 6 7 8 10 10 11 12 13
11 9 7 7 7 8 8 8 6 6 5 6 5 3 1 1 4 4 4 4 5 6 7 7 6 5 5 6 6 6 6 6 6 6 6 7 8 8 9 10 11 12 14
11 10 9 8 8 7 8 9 8 6 5 6 5 5 2 1 3 4 4 5 5 4 5 7 7 6 5 5 5 6 6 7 6 6 6 7 8 9 9 10 11 13 14
11 11 11 9 9 9 10 10 10 9 7 6 6 6 5 5 2 2 4 5 5 4 4 5 6 7 7 6 6 7 7 7 7 7 7 7 8 8 9 10 11 12 13
11 11 11 10 10 9 10 11 10 8 9 8 6 3 3 4 4 3 2 3 5 5 5 4 5 6 7 7 7 7 7 7 7 7 7 7 8 8 9 10 11 12 13
10 10 10 10 10 9 11 11 10 10 9 8 7 5 3 2 3 4 4 4 3 4 5 5 4 5 7 7 7 7 7 7 7 7 7 6 7 8 9 10 11 12 13
8 10 10 10 9 9 11 11 11 12 11 10 8 7 6 5 5 4 4 6 5 3 4 4 4 5 6 7 8 8 8 7 7 6 6 6 6 7 8 9 10 11 12
7 10 10 10 9 9 10 10 11 12 12 12 10 8 7 6 5 4 4 4 3 1 2 3 4 5 6 7 7 8 8 8 7 7 6 5 5 5 7 8 10 11 12
9 10 10 11 10 10 10 10 10 11 11 12 12 10 7 6 6 5 5 5 3 2 2 4 3 5 6 7 8 8 8 8 8 7 5 4 4 4 5 7 9 10 11
8 9 10 11 11 10 10 10 10 11 11 11 11 11 9 6 6 5 5 6 6 5 5 4 3 4 5 6 7 7 7 8 7 6 5 4 4 3 4 6 7 8 9
7 8 9 10 10 11 11 10 10 10 12 11 9 11 10 7 7 6 6 5 5 5 5 4 3 3 4 4 6 6 7 7 7 6 5 5 4 3 4 5 6 7 8
6 8 8 9 10 10 11 11 11 11 13 12 11 12 12 10 8 7 6 6 5 5 5 3 1 2 4 4 3 4 5 5 5 6 6 5 4 4 3 4 5 6 7
6 6 7 8 9 9 10 11 12 12 13 13 13 12 12 10 10 8 7 7 6 5 5 5 2 2 3 4 3 3 2 3 3 5 6 5 4 4 3 3 4 5 6
4 5 6 7 8 9 9 11 11 12 13 13 13 13 13 13 12 9 9 8 6 5 4 5 3 2 1 2 2 1 1 1 2 3 4 4 4 3 3 3 3 3 4
4 4 5 6 7 8 9 10 10 11 12 12 12 12 12 13 14 12 10 9 7 6 5 5 4 3 2 2 3 2 2 1 1 1 1 2 2 2 2 2 2 3 4
4 3 4 4 5 6 8 9 10 11 11 11 10 11 11 13 15 13 10 10 9 7 6 5 4 3 3 3 4 3 3 1 1 1 0 1 1 0 1 2 2 2 3
2 2 3 4 4 5 7 9 10 11 11 11 11 10 10 11 14 15 15 14 13 10 9 7 5 5 6 5 4 4 3 2 2 2 1 1 1 1 1 1 2 2 3
2 3 3 4 5 6 6 8 10 10 11 11 11 10 8 9 12 10 12 12 11 12 12 10 8 8 7 8 7 5 4 3 3 3 2 2 1 2 1 2 3 2 3
2 3 4 4 4 4 5 6 7 9 9 9 10 10 10 9 11 11 10 8 7 7 8 7 7 7 6 7 8 6 5 3 2 1 2 2 1 1 2 2 3 2 3
3 3 3 2 2 2 3 5 7 6 7 8 8 9 10 9 13 14 11 9 7 4 5 8 7 7 8 10 9 6 5 3 2 2 1 2 1 1 1 1 3 2 3
4 3 3 2 2 2 3 5 6 5 6 6 6 8 11 10 13 15 11 10 9 7 6 5 5 6 6 8 9 7 7 4 2 2 3 2 1 1 0 1 2 2 2
Wind_Direction
179 177 176 169 170 164 163 164 160 160 158 157 159 161 165 166 169 172 183 188 187 189 185 176 171 169 163 159 152 142 118 64 17 13 11 5 359 353 349 348 348 348 345
179 183 185 181 181 174 170 171 169 168 168 165 165 167 171 172 175 177 183 193 194 195 197 188 180 178 179 181 178 177 174 325 353 352 350 349 346 345 346 347 345 343 341
183 183 188 191 186 175 169 167 163 163 167 166 167 169 173 176 177 181 185 190 197 203 204 197 192 191 192 195 197 201 217 268 314 326 331 333 337 338 338 339 339 338 337
191 185 188 197 185 176 176 174 173 173 174 172 170 175 175 176 182 186 187 191 194 201 204 201 201 201 200 205 210 218 231 258 286 306 315 324 329 330 332 335 334 335 336
197 190 192 194 184 182 188 184 179 180 179 176 173 172 177 180 183 186 188 195 197 196 199 201 202 205 210 213 219 231 241 257 280 296 307 315 320 324 327 329 332 335 336
201 195 196 192 187 187 192 189 178 185 181 173 167 164 176 185 182 189 194 197 199 198 196 196 198 207 211 218 228 243 252 259 275 288 298 307 314 318 322 327 332 333 333
203 199 200 193 192 195 194 188 177 177 181 166 146 140 112 183 195 202 194 192 198 200 192 192 193 197 211 220 231 243 255 263 274 285 293 302 307 312 318 325 329 330 331
206 204 200 198 198 197 192 191 178 174 180 175 157 148 155 234 231 206 196 199 200 191 191 194 192 194 201 210 226 239 254 265 275 284 290 298 306 311 318 323 326 328 329
212 209 206 202 202 199 197 193 187 180 183 191 179 163 166 200 196 210 203 198 194 193 194 192 195 198 199 206 220 237 249 261 270 278 287 296 303 309 318 322 324 327 330
215 211 207 204 204 205 200 196 193 190 181 187 193 196 179 157 161 182 211 199 195 199 199 196 198 199 199 204 216 232 243 253 262 273 284 291 299 307 316 322 326 329 331
218 213 208 208 208 208 203 197 195 192 192 191 187 176 171 161 149 161 199 201 204 208 200 197 195 198 199 202 213 227 234 241 253 266 276 286 297 308 317 324 328 331 333
220 216 212 210 212 209 203 200 200 196 197 196 195 188 178 172 178 168 187 197 207 210 196 194 196 199 200 203 212 219 223 230 239 253 267 278 292 306 315 321 326 329 330
224 218 217 213 213 213 206 199 202 202 198 196 201 203 198 192 177 166 166 182 192 207 193 205 205 196 198 201 211 214 220 224 230 240 254 267 283 301 311 319 323 327 330
226 218 216 216 215 213 209 202 204 206 201 200 203 200 198 197 184 176 169 166 181 224 220 221 200 200 199 199 207 207 216 221 225 231 238 247 269 292 306 314 320 326 330
230 220 218 217 215 213 209 204 208 208 201 202 204 202 199 197 189 184 174 170 174 203 229 215 202 199 193 193 201 199 207 216 219 223 227 233 255 280 298 310 319 326 331
230 225 221 217 214 214 210 207 206 207 203 203 201 199 198 196 189 184 179 177 179 187 213 209 196 178 175 182 193 189 201 209 214 219 222 228 239 259 282 302 315 322 327
233 229 222 219 215 216 209 206 210 205 206 203 199 198 197 189 189 185 179 176 181 179 200 210 178 166 173 179 175 183 194 197 206 215 220 222 231 243 267 291 307 317 325
235 236 227 221 217 216 211 205 208 207 204 202 200 196 197 187 188 186 183 182 186 183 184 193 191 180 185 183 171 172 171 187 199 212 219 224 234 245 265 286 304 318 327
236 239 232 226 223 218 215 211 208 207 203 201 197 195 194 185 190 189 184 185 186 179 174 177 184 178 164 155 146 154 160 157 189 209 220 228 241 251 269 288 308 324 330
235 236 236 234 234 223 215 212 209 204 200 199 194 193 192 188 188 184 183 183 177 170 166 168 172 163 161 152 149 172 193 196 208 162 217 240 245 244 259 282 305 325 333
241 233 232 238 245 227 216 212 206 198 197 195 192 192 192 189 185 183 180 178 174 175 173 177 179 169 172 169 188 181 191 183 192 163 241 244 231 228 258 278 299 313 331
260 253 245 244 249 235 221 215 204 196 193 191 189 188 187 185 182 180 176 175 176 180 185 187 192 192 200 193 177 173 164 157 219 199 181 230 181 226 252 245 279 306 325
283 280 270 257 252 237 222 214 201 195 190 189 185 183 182 183 177 178 174 173 178 181 182 184 189 199 196 190 175 175 180 182 198 173 156 204 203 239 242 237 257 285 319
292 279 272 266 260 236 216 205 190 191 187 184 182 181 179 179 178 170 167 171 179 187 187 185 190 194 187 176 176 173 167 133 96 140 138 178 211 256 287 272 245 276 320
297 287 278 274 278 265 233 204 180 176 178 178 177 178 177 180 175 165 167 169 170 179 165 160 157 153 151 153 148 134 138 133 150 184 163 146 169 297 285 261 264 273 319
297 296 302 299 285 275 262 207 173 164 168 172 176 179 179 178 175 168 172 173 176 176 154 142 135 129 132 144 150 158 164 159 146 181 186 150 143 89 324 269 279 291 314
Height
1476 1477 1480 1482 1484 1487 1489 1491 1494 1496 1499 1501 1504 1507 1509 1511 1513 1515 1517 1518 1519 1520 1522 1522 1523 1523 1523 1523 1523 1522 1522 1521 1521 1520 1519 1517 1516 1514 1512 1510 1508 1506 1504
1471 1473 1476 1478 1480 1483 1485 1488 1490 1493 1495 1498 1501 1504 1507 1509 1511 1513 1514 1516 1517 1519 1520 1521 1521 1522 1522 1522 1522 1521 1521 1520 1519 1518 1517 1516 1514 1512 1511 1509 1506 1504 1502
1467 1469 1471 1474 1477 1479 1482 1484 1486 1489 1492 1495 1497 1501 1504 1506 1508 1510 1512 1513 1515 1516 1518 1519 1519 1520 1520 1520 1520 1520 1519 1519 1518 1517 1515 1514 1512 1511 1509 1507 1504 1502 1499
1463 1465 1467 1470 1473 1475 1478 1480 1482 1485 1488 1491 1493 1497 1500 1503 1505 1507 1509 1511 1512 1514 1515 1516 1517 1518 1518 1518 1518 1518 1517 1517 1516 1515 1514 1512 1511 1509 1507 1505 1502 1500 1497
1458 1460 1462 1465 1468 1471 1473 1476 1478 1481 1484 1487 1490 1493 1496 1499 1501 1504 1506 1508 1509 1511 1512 1514 1515 1515 1516 1516 1516 1516 1516 1515 1514 1513 1512 1510 1508 1507 1505 1502 1500 1497 1495
1452 1455 1457 1460 1463 1466 1469 1471 1473 1477 1480 1483 1486 1489 1492 1495 1498 1500 1502 1504 1506 1508 1509 1510 1512 1512 1513 1513 1513 1513 1513 1513 1512 1511 1509 1508 1506 1504 1502 1500 1497 1495 1492
1447 1449 1452 1455 1458 1460 1463 1466 1469 1472 1475 1479 1482 1485 1489 1491 1493 1496 1498 1500 1502 1504 1506 1507 1508 1509 1510 1510 1510 1510 1510 1510 1509 1508 1507 1505 1503 1502 1500 1497 1495 1492 1489
1441 1443 1446 1449 1452 1455 1458 1461 1464 1466 1470 1473 1476 1480 1484 1488 1488 1491 1493 1495 1498 1500 1502 1503 1505 1506 1506 1507 1507 1507 1507 1507 1506 1505 1504 1502 1501 1499 1497 1494 1492 1489 1486
1435 1438 1440 1443 1446 1449 1452 1455 1459 1462 1464 1468 1471 1474 1478 1479 1483 1485 1487 1490 1493 1495 1497 1499 1501 1502 1503 1503 1503 1503 1503 1503 1502 1502 1501 1499 1497 1496 1494 1491 1489 1486 1483
1429 1431 1434 1437 1440 1443 1446 1450 1453 1457 1460 1462 1466 1469 1472 1473 1476 1479 1483 1485 1488 1490 1493 1495 1497 1498 1499 1499 1500 1500 1500 1499 1499 1498 1497 1496 1494 1492 1490 1488 1485 1483 1480
1423 1425 1428 1431 1433 1436 1440 1444 1447 1451 1454 1456 1459 1462 1466 1468 1470 1472 1475 1479 1483 1485 1487 1490 1492 1493 1494 1495 1495 1496 1496 1496 1495 1494 1493 1492 1490 1489 1487 1484 1482 1479 1476
1416 1419 1422 1425 1428 1430 1434 1437 1441 1445 1448 1451 1454 1457 1460 1462 1465 1467 1470 1473 1476 1479 1482 1484 1486 1488 1489 1490 1491 1492 1492 1492 1491 1491 1489 1488 1486 1485 1483 1480 1478 1475 1472
1410 1412 1415 1418 1422 1424 1428 1431 1435 1439 1442 1445 1448 1452 1455 1458 1461 1463 1466 1469 1472 1474 1476 1479 1481 1483 1484 1486 1487 1487 1488 1488 1487 1486 1485 1484 1482 1480 1478 1476 1474 1471 1469
1404 1406 1409 1413 1416 1419 1422 1425 1428 1432 1436 1439 1443 1446 1449 1453 1456 1459 1462 1464 1467 1469 1470 1472 1475 1477 1479 1480 1482 1483 1483 1483 1483 1482 1481 1479 1478 1476 1474 1472 1470 1467 1465
1398 1401 1403 1407 1409 1413 1416 1419 1422 1426 1429 1433 1437 1440 1443 1447 1451 1454 1457 1460 1462 1464 1465 1467 1470 1472 1474 1475 1477 1478 1478 1478 1478 1477 1476 1475 1473 1472 1470 1468 1465 1463 1461
1392 1395 1397 1401 1403 1407 1410 1413 1416 1420 1423 1426 1430 1434 1437 1441 1445 1448 1451 1454 1457 1459 1460 1462 1465 1467 1469 1470 1472 1473 1474 1474 1473 1473 1472 1470 1469 1467 1465 1463 1461 1459 1457
1386 1389 1391 1394 1397 1400 1403 1406 1409 1413 1416 1420 1424 1427 1430 1435 1439 1442 1445 1448 1451 1454 1455 1457 1460 1463 1464 1466 1467 1468 1469 1469 1469 1468 1467 1466 1464 1463 1461 1459 1457 1455 1453
1381 1383 1385 1388 1390 1393 1396 1399 1402 1405 1409 1412 1416 1420 1424 1427 1432 1436 1439 1442 1445 1448 1450 1452 1455 1458 1459 1461 1462 1463 1464 1464 1464 1463 1462 1461 1460 1458 1456 1454 1452 1450 1449
1376 1378 1379 1381 1384 1386 1389 1392 1395 1398 1402 1406 1410 1413 1417 1420 1425 1430 1433 1437 1440 1443 1445 1447 1449 1452 1454 1456 1457 1458 1459 1459 1459 1458 1458 1457 1456 1454 1452 1451 1448 1447 1445
1371 1372 1373 1375 1377 1379 1382 1386 1389 1392 1395 1399 1403 1407 1411 1414 1419 1423 1427 1431 1434 1437 1440 1443 1445 1446 1448 1450 1452 1452 1453 1454 1454 1453 1453 1453 1451 1450 1448 1447 1445 1443 1441
1367 1367 1368 1369 1370 1372 1375 1378 1382 1385 1388 1392 1396 1400 1404 1408 1413 1417 1420 1424 1428 1431 1434 1437 1439 1441 1442 1444 1445 1447 1448 1449 1448 1448 1448 1448 1447 1446 1444 1443 1441 1440 1438
1363 1363 1364 1364 1365 1367 1369 1372 1375 1378 1382 1385 1389 1394 1398 1402 1406 1411 1415 1419 1423 1426 1429 1431 1433 1435 1437 1439 1441 1442 1443 1443 1443 1444 1443 1443 1442 1441 1440 1439 1438 1437 1435
1359 1359 1360 1360 1360 1362 1364 1367 1370 1373 1376 1380 1383 1388 1392 1396 1401 1405 1409 1413 1417 1421 1424 1426 1428 1430 1432 1434 1436 1437 1438 1438 1438 1439 1439 1438 1438 1437 1437 1436 1435 1434 1432
1357 1356 1356 1357 1357 1358 1361 1363 1365 1368 1371 1375 1378 1382 1386 1391 1396 1400 1404 1408 1411 1415 1418 1421 1423 1425 1428 1431 1432 1433 1434 1434 1434 1435 1435 1434 1434 1434 1433 1433 1432 1431 1429
1354 1354 1354 1353 1353 1354 1356 1359 1362 1364 1366 1370 1374 1378 1382 1386 1391 1395 1399 1402 1406 1409 1413 1416 1419 1421 1423 1426 1427 1428 1428 1429 1429 1430 1430 1431 1430 1429 1429 1429 1429 1428 1427
1352 1351 1351 1351 1350 1351 1353 1355 1358 1360 1362 1366 1370 1374 1378 1382 1386 1390 1393 1397 1400 1403 1407 1410 1413 1416 1418 1420 1422 1423 1424 1424 1424 1425 1426 1427 1426 1426 1425 1426 1426 1425 1424